Location: Santa Margarita Mountains
(33.4725°N, 117.3967°W)
Time: 05:55:22
(UTC+00:00)

Cosmos 1867 - Pass Details

Date: 17 July 2025
Orbit: 777 x 797 km, 65.0° (Epoch: 16 February)

Event Time Altitude Azimuth Distance (km) Brightness Sun altitude
Exits shadow 05:19:45 50° 86° (E) 982 3.8 -23.9°
Drops below altitude 10° 05:24:18 10° 38° (NE) 2,337 6.1 -24.5°
Sets 05:26:45 0° 34° (NE) 3,272 7.0 -24.8°
